Location: Katherine
(14.4670°S, 132.2670°E)
Time: 12:10:15
(UTC+09:30)

ISS - Visible Passes

Search period start: 28 July 2017 00:00
Search period end: 07 August 2017 00:00
Orbit: 400 x 408 km, 51.6° (Epoch: 28 July)

Date Brightness Start Highest point End Pass type
(mag) Time Alt. Az. Time Alt. Az. Time Alt. Az.
28 Jul -1.7 05:33:32 10° N 05:36:24 28° NE 05:39:18 10° ESE visible
29 Jul -2.7 06:18:42 16° W 06:20:27 24° SW 06:23:14 10° S visible
30 Jul -1.5 05:30:31 17° SSE 05:30:31 17° SSE 05:31:27 10° SSE visible
